When you browse on this site, cookies collect data to enhance your experience and personalize the content and advertising you see.
Visit our Privacy Policy to learn more. By continuing to use the site, you agree to this use of cookies and data.
  • Em Portugal
  • Lista de países
  • Para 7 dias
  • Temperatura da água
  • Mapa do tempo
  • Widgets de tempo
  • user-avatar
    Iniciar Sessão

    Previsão horária em Berat

    Hoje, 21 Agosto, Quarta-feira

    Tempo Temperatura Precipitação Vento Pressão Humidade
    00:00 +25°C° 0 mm 1 m/s 746 mmHg 57%
    01:00 +25°C° 0 mm 1 m/s 746 mmHg 57%
    02:00 +25°C° 0 mm 1 m/s 746 mmHg 57%
    03:00 +24°C° 0 mm 1 m/s 746 mmHg 57%
    04:00 +24°C° 0 mm 1 m/s 746 mmHg 57%
    05:00 +26°C° 0 mm 1 m/s 746 mmHg 51%
    06:00 +28°C° 0 mm 1 m/s 746 mmHg 45%
    07:00 +29°C° 0 mm 1 m/s 747 mmHg 40%
    08:00 +31°C° 0 mm 1 m/s 746 mmHg 36%
    09:00 +34°C° 0 mm 2 m/s 746 mmHg 32%
    10:00 +36°C° 0 mm 2 m/s 746 mmHg 28%
    11:00 +37°C° 0 mm 3 m/s 746 mmHg 28%
    12:00 +37°C° 0 mm 4 m/s 746 mmHg 28%
    13:00 +39°C° 0 mm 5 m/s 745 mmHg 27%
    14:00 +37°C° 0 mm 5 m/s 745 mmHg 29%
    15:00 +36°C° 0 mm 4 m/s 745 mmHg 32%
    16:00 +35°C° 0 mm 4 m/s 745 mmHg 34%
    17:00 +33°C° 0 mm 3 m/s 745 mmHg 42%
    18:00 +29°C° 0 mm 2 m/s 745 mmHg 51%
    19:00 +27°C° 0 mm 1 m/s 745 mmHg 60%
    20:00 +27°C° 0 mm 1 m/s 745 mmHg 60%
    21:00 +26°C° 0 mm 1 m/s 745 mmHg 60%
    22:00 +26°C° 0 mm 1 m/s 745 mmHg 61%
    23:00 +26°C° 0 mm 1 m/s 745 mmHg 58%

    Amanhã, 22 Agosto, Quinta-feira

    Tempo Temperatura Precipitação Vento Pressão Humidade
    00:00 +25°C° 0 mm 1 m/s 746 mmHg 56%
    01:00 +25°C° 0 mm 1 m/s 746 mmHg 54%
    02:00 +25°C° 0 mm 1 m/s 746 mmHg 53%
    03:00 +25°C° 0 mm 1 m/s 746 mmHg 52%
    04:00 +24°C° 0 mm 1 m/s 745 mmHg 52%
    05:00 +26°C° 0 mm 1 m/s 746 mmHg 46%
    06:00 +28°C° 0 mm 1 m/s 746 mmHg 41%
    07:00 +30°C° 0 mm 1 m/s 746 mmHg 35%
    08:00 +32°C° 0 mm 1 m/s 746 mmHg 31%
    09:00 +34°C° 0 mm 1 m/s 746 mmHg 26%
    10:00 +37°C° 0 mm 1 m/s 747 mmHg 21%
    11:00 +38°C° 0 mm 2 m/s 746 mmHg 21%
    12:00 +39°C° 0 mm 3 m/s 746 mmHg 20%
    13:00 +41°C° 0 mm 4 m/s 746 mmHg 19%
    14:00 +40°C° 0 mm 4 m/s 746 mmHg 23%
    15:00 +37°C° 0 mm 4 m/s 745 mmHg 26%
    16:00 +36°C° 0 mm 4 m/s 745 mmHg 29%
    17:00 +34°C° 0 mm 3 m/s 745 mmHg 36%
    18:00 +30°C° 0 mm 2 m/s 745 mmHg 44%
    19:00 +28°C° 0 mm 1 m/s 745 mmHg 51%
    20:00 +27°C° 0 mm 1 m/s 746 mmHg 51%
    21:00 +27°C° 0 mm 1 m/s 746 mmHg 51%
    22:00 +26°C° 0 mm 1 m/s 746 mmHg 51%
    23:00 +26°C° 0 mm 2 m/s 746 mmHg 50%

    Depois de amanhã, 23 Agosto, Sexta-feira

    Tempo Temperatura Precipitação Vento Pressão Humidade
    00:00 +26°C° 0 mm 2 m/s 746 mmHg 48%
    01:00 +26°C° 0 mm 2 m/s 746 mmHg 47%
    02:00 +26°C° 0 mm 2 m/s 746 mmHg 47%
    03:00 +26°C° 0 mm 2 m/s 746 mmHg 47%
    04:00 +26°C° 0 mm 2 m/s 746 mmHg 47%
    05:00 +28°C° 0 mm 2 m/s 746 mmHg 43%
    06:00 +29°C° 0 mm 2 m/s 746 mmHg 39%
    07:00 +31°C° 0 mm 1 m/s 747 mmHg 35%
    08:00 +34°C° 0 mm 2 m/s 747 mmHg 31%
    09:00 +36°C° 0 mm 2 m/s 747 mmHg 27%
    10:00 +38°C° 0 mm 2 m/s 747 mmHg 23%
    11:00 +38°C° 0 mm 2 m/s 746 mmHg 25%
    12:00 +37°C° 0 mm 3 m/s 746 mmHg 27%
    13:00 +36°C° 0 mm 3 m/s 746 mmHg 29%
    14:00 +35°C° 0 mm 3 m/s 745 mmHg 31%
    15:00 +35°C° 0 mm 2 m/s 745 mmHg 33%
    16:00 +34°C° 0 mm 2 m/s 745 mmHg 35%
    17:00 +32°C° 0 mm 2 m/s 745 mmHg 38%
    18:00 +30°C° 0 mm 1 m/s 745 mmHg 42%
    19:00 +27°C° 0 mm 0 m/s 745 mmHg 46%
    20:00 +27°C° 0 mm 0 m/s 745 mmHg 46%
    21:00 +28°C° 0 mm 1 m/s 745 mmHg 46%
    22:00 +28°C° 0 mm 1 m/s 746 mmHg 47%
    23:00 +27°C° 0 mm 1 m/s 745 mmHg 48%

    24 Agosto, Sábado

    Tempo Temperatura Precipitação Vento Pressão Humidade
    00:00 +27°C° 0 mm 1 m/s 745 mmHg 49%
    01:00 +27°C° 0 mm 1 m/s 745 mmHg 50%
    02:00 +26°C° 0 mm 1 m/s 745 mmHg 50%
    03:00 +26°C° 0 mm 1 m/s 745 mmHg 51%
    04:00 +26°C° 0 mm 2 m/s 745 mmHg 51%
    05:00 +27°C° 0 mm 2 m/s 745 mmHg 46%
    06:00 +29°C° 0 mm 2 m/s 745 mmHg 41%
    07:00 +31°C° 0 mm 2 m/s 745 mmHg 37%
    08:00 +34°C° 0 mm 2 m/s 745 mmHg 33%
    09:00 +36°C° 0 mm 2 m/s 746 mmHg 29%
    10:00 +38°C° 0 mm 2 m/s 746 mmHg 25%
    11:00 +37°C° 0 mm 2 m/s 745 mmHg 26%
    12:00 +37°C° 0 mm 3 m/s 745 mmHg 28%
    13:00 +36°C° 0 mm 4 m/s 745 mmHg 30%
    14:00 +36°C° 0 mm 3 m/s 744 mmHg 31%
    15:00 +35°C° 0 mm 2 m/s 744 mmHg 32%
    16:00 +35°C° 0 mm 2 m/s 744 mmHg 34%
    17:00 +32°C° 0 mm 2 m/s 744 mmHg 39%
    18:00 +30°C° 0 mm 1 m/s 744 mmHg 45%
    19:00 +28°C° 0 mm 1 m/s 744 mmHg 50%
    20:00 +28°C° 0 mm 1 m/s 744 mmHg 53%
    21:00 +28°C° 0 mm 1 m/s 745 mmHg 56%
    22:00 +27°C° 0 mm 1 m/s 745 mmHg 59%
    23:00 +26°C° 0 mm 1 m/s 745 mmHg 61%

    25 Agosto, Domingo

    Tempo Temperatura Precipitação Vento Pressão Humidade
    00:00 +26°C° 0 mm 1 m/s 744 mmHg 64%
    01:00 +25°C° 0 mm 1 m/s 744 mmHg 66%
    02:00 +25°C° 0 mm 1 m/s 744 mmHg 62%
    03:00 +25°C° 0 mm 1 m/s 744 mmHg 57%
    04:00 +25°C° 0 mm 2 m/s 744 mmHg 53%
    05:00 +27°C° 0 mm 2 m/s 744 mmHg 47%
    06:00 +29°C° 0 mm 1 m/s 744 mmHg 42%
    07:00 +30°C° 0 mm 1 m/s 744 mmHg 36%
    08:00 +33°C° 0 mm 1 m/s 744 mmHg 32%
    09:00 +36°C° 0 mm 2 m/s 744 mmHg 28%
    10:00 +38°C° 0 mm 2 m/s 744 mmHg 24%
    11:00 +37°C° 0 mm 2 m/s 744 mmHg 27%
    12:00 +36°C° 0 mm 3 m/s 744 mmHg 31%
    13:00 +35°C° 0 mm 4 m/s 744 mmHg 35%
    14:00 +34°C° 0 mm 3 m/s 744 mmHg 36%
    15:00 +34°C° 0 mm 3 m/s 743 mmHg 38%
    16:00 +34°C° 0 mm 2 m/s 743 mmHg 39%
    17:00 +31°C° 0 mm 2 m/s 743 mmHg 44%
    18:00 +29°C° 0 mm 1 m/s 743 mmHg 50%
    19:00 +28°C° 0 mm 1 m/s 743 mmHg 55%
    20:00 +28°C° 0 mm 1 m/s 744 mmHg 55%
    21:00 +27°C° 0 mm 1 m/s 744 mmHg 55%
    22:00 +27°C° 0 mm 1 m/s 744 mmHg 54%
    23:00 +27°C° 0 mm 1 m/s 744 mmHg 53%

    26 Agosto, Segunda-feira

    Tempo Temperatura Precipitação Vento Pressão Humidade
    00:00 +26°C° 0 mm 1 m/s 744 mmHg 52%
    01:00 +26°C° 0 mm 1 m/s 744 mmHg 51%
    02:00 +26°C° 0 mm 2 m/s 744 mmHg 50%
    03:00 +26°C° 0 mm 2 m/s 744 mmHg 50%
    04:00 +26°C° 0 mm 2 m/s 744 mmHg 49%
    05:00 +27°C° 0 mm 2 m/s 744 mmHg 45%
    06:00 +28°C° 0 mm 2 m/s 744 mmHg 40%
    07:00 +30°C° 0 mm 2 m/s 744 mmHg 36%
    08:00 +32°C° 0 mm 2 m/s 744 mmHg 32%
    09:00 +35°C° 0 mm 2 m/s 744 mmHg 28%
    10:00 +38°C° 0 mm 2 m/s 745 mmHg 24%
    11:00 +37°C° 0 mm 2 m/s 744 mmHg 24%
    12:00 +37°C° 0 mm 3 m/s 744 mmHg 25%
    13:00 +37°C° 0 mm 4 m/s 744 mmHg 26%
    14:00 +36°C° 0 mm 4 m/s 744 mmHg 28%
    15:00 +36°C° 0 mm 3 m/s 743 mmHg 30%
    16:00 +35°C° 0 mm 3 m/s 743 mmHg 31%
    17:00 +33°C° 0 mm 3 m/s 744 mmHg 38%
    18:00 +30°C° 0 mm 2 m/s 744 mmHg 45%
    19:00 +27°C° 0 mm 1 m/s 744 mmHg 52%
    20:00 +27°C° 0 mm 1 m/s 744 mmHg 53%
    21:00 +27°C° 0 mm 1 m/s 745 mmHg 53%
    22:00 +27°C° 0 mm 1 m/s 745 mmHg 53%
    23:00 +27°C° 0 mm 1 m/s 745 mmHg 55%
    Mostrar mais